TimeEDT,TemperatureF,Dew PointF,Humidity,Sea Level PressureIn,VisibilityMPH,Wind Direction,Wind SpeedMPH,Gust SpeedMPH,PrecipitationIn,Events,Conditions,WindDirDegrees,DateUTC
12:53 AM,70.0,61.0,73,29.91,10.0,South,16.1,25.3,N/A,,Clear,170,2013-03-12 04:53:00
1:53 AM,70.0,62.1,76,29.93,10.0,South,15.0,-,N/A,,Clear,170,2013-03-12 05:53:00
2:53 AM,70.0,62.1,76,29.90,10.0,South,20.7,29.9,N/A,,Clear,170,2013-03-12 06:53:00
3:53 AM,69.1,62.1,78,29.87,10.0,SSE,17.3,-,N/A,,Clear,160,2013-03-12 07:53:00
4:53 AM,70.0,62.1,76,29.87,10.0,SSE,15.0,-,N/A,,Overcast,160,2013-03-12 08:53:00
5:53 AM,70.0,63.0,78,29.87,10.0,South,21.9,29.9,0.00,,Overcast,170,2013-03-12 09:53:00
6:53 AM,71.1,64.0,78,29.87,10.0,South,24.2,32.2,N/A,,Overcast,170,2013-03-12 10:53:00
7:53 AM,69.1,66.0,90,29.89,4.0,South,16.1,26.5,0.12,Rain,Light Rain,170,2013-03-12 11:53:00
8:34 AM,68.0,66.2,94,29.90,4.0,South,20.7,25.3,0.10,Rain,Light Rain,180,2013-03-12 12:34:00
8:43 AM,68.0,66.2,94,29.90,2.0,South,19.6,25.3,0.13,Rain,Light Rain,180,2013-03-12 12:43:00
8:53 AM,68.0,66.0,93,29.91,4.0,South,18.4,26.5,0.17,Rain,Heavy Rain,180,2013-03-12 12:53:00
9:43 AM,68.0,66.2,94,29.92,2.0,South,18.4,25.3,0.12,Rain,Rain,180,2013-03-12 13:43:00
9:51 AM,68.0,66.2,94,29.92,3.0,South,18.4,26.5,0.14,Rain,Rain,180,2013-03-12 13:51:00
9:53 AM,68.0,66.0,93,29.92,2.5,South,18.4,26.5,0.14,Rain,Rain,170,2013-03-12 13:53:00
10:11 AM,68.0,66.2,94,29.93,9.0,South,17.3,24.2,0.01,Rain,Light Rain,180,2013-03-12 14:11:00
10:26 AM,68.0,66.2,94,29.94,10.0,South,18.4,23.0,0.01,,Overcast,180,2013-03-12 14:26:00
10:40 AM,68.0,66.2,94,29.94,10.0,South,17.3,28.8,0.01,,Overcast,190,2013-03-12 14:40:00
10:53 AM,68.0,66.0,93,29.95,9.0,South,18.4,27.6,0.01,,Overcast,190,2013-03-12 14:53:00
11:35 AM,64.4,62.6,94,29.96,10.0,NW,17.3,-,N/A,,Overcast,310,2013-03-12 15:35:00
11:53 AM,63.0,61.0,93,29.98,10.0,WNW,15.0,-,N/A,,Overcast,300,2013-03-12 15:53:00
12:53 PM,63.0,61.0,93,29.99,6.0,NW,11.5,-,N/A,,Overcast,320,2013-03-12 16:53:00
1:53 PM,64.9,60.1,84,29.97,10.0,NW,12.7,-,N/A,,Overcast,320,2013-03-12 17:53:00
2:39 PM,64.4,59.0,83,29.96,10.0,WNW,13.8,18.4,N/A,,Overcast,300,2013-03-12 18:39:00
2:53 PM,66.0,59.0,78,29.96,10.0,NW,13.8,-,N/A,,Overcast,320,2013-03-12 18:53:00
3:53 PM,66.0,57.0,73,29.96,10.0,NW,11.5,-,N/A,,Overcast,320,2013-03-12 19:53:00
4:03 PM,66.2,55.4,68,29.96,10.0,NW,10.4,-,N/A,,Overcast,320,2013-03-12 20:03:00
4:49 PM,64.4,55.4,73,29.96,10.0,NW,11.5,-,N/A,,Partly Cloudy,310,2013-03-12 20:49:00
4:53 PM,66.0,55.0,68,29.96,10.0,WNW,13.8,-,N/A,,Partly Cloudy,300,2013-03-12 20:53:00
5:53 PM,63.0,53.1,70,29.96,10.0,NW,15.0,19.6,N/A,,Clear,320,2013-03-12 21:53:00
6:53 PM,61.0,52.0,72,29.97,10.0,NNW,13.8,-,N/A,,Clear,330,2013-03-12 22:53:00
7:53 PM,59.0,51.1,75,29.99,10.0,NW,9.2,-,N/A,,Clear,320,2013-03-12 23:53:00
8:53 PM,57.9,51.1,78,30.01,10.0,NW,5.8,-,N/A,,Clear,320,2013-03-13 00:53:00
9:53 PM,57.0,51.1,81,30.03,10.0,NNW,3.5,-,N/A,,Clear,330,2013-03-13 01:53:00
10:53 PM,57.9,51.1,78,30.04,10.0,NNW,9.2,-,N/A,,Clear,330,2013-03-13 02:53:00
11:53 PM,57.9,51.1,78,30.06,10.0,NNW,5.8,-,N/A,,Clear,340,2013-03-13 03:53:00